Find Starlink 30576

NORAD ID: 58065 Int'l Des: 2023-158 Owner: SPXS Country: US Constellation: starlink operational
LEOCIRCULAR

Live-Position

3D-Globus wird geladen...

Über Starlink 30576

Beschreibung wird geladen...

Nächste Überflüge

Passes for default location (London). Set your location on the main map for personalized predictions.

Höhenverlauf

Loading altitude history...

Zweizeiliger Elementsatz

1 58065U 23158Q 26132.98749614 .00001363 00000-0 59067-4 0 9999
2 58065 43.0058 23.9223 0001040 250.4600 109.6140 15.27575655143400
Epoch: 12. Mai 2026 • Age: 18 hours

Aktueller Status

Höhe 495.5 km
Geschwindigkeit 7.62 km/s
Subsatellitenpunkt -42.66°S, 135.79°E
Startdatum 13. Okt. 2023
Alter 2.5 years
Typ internet

Technische Details

Klassifizierung Payload
Masse 730.00 kg
Trockenmasse 700.00 kg
Gesamtmasse 730.00 kg
Länge 0.30 m
Durchmesser 4.10 m
Spannweite 29.00 m
Form Box + pan
Hersteller SPXS
Bus-Typ Starlink V2M
Phasenstatus In Orbit
Besitzer/Staat SPXS/US

Most Searched